User: anonymous   Login
Location: Unspecified
(0.0000°N, 0.0000°E)
Time: 11:20:31
(UTC+00:00)
Language:

POLYITAN 1 - Orbit

View from above orbital plane
View from above orbital plane
View from above satellite
View from above satellite

Ground track
Ground track

The orbit data is extracted from the following two-line orbital elements,

1 40042U 14033AJ  19341.83188750 +.00000218 +00000-0 +29397-4 0  9994
2 40042 097.9172 261.6451 0013954 198.6024 161.4684 14.88756020296338
Epoch (UTC): 07 December 2019 19:57:55
Eccentricity: 0.0013954
inclination: 97.9172°
perigee height: 592 km
apogee height: 611 km
right ascension of ascending node: 261.6451°
argument of perigee: 198.6024°
revolutions per day: 14.88756020
mean anomaly at epoch: 161.4684°
orbit number at epoch: 29633

The dashed part of the orbit path shows where the satellite is in the earth's shadow,  

DLR